Content
SEND FEEDBACK

Daily
Averages
Monthly
Summary
United States of America

WELLFLEET, NEBRASKA


Home > North America > United States > Nebraska
Elevation: 856 meters     Latitude: 40 45N     Longitude: 100 44W

WEATHER
 
SELECT A DAY
Number of Records: 201,382;   Date Range: 1/1/95 - 7/26/14
 
SHARE

PRINT THIS DATA

[ ← Previous Day ]
WEATHER ALMANAC - 13 FEBRUARY, 2013
[ Next Day → ]
[ °F ]   °C
Weather ElementAverageHighLow
Temperature0.9 °C8.9 °C (3:53 pm)-7.2 °C (6:53 am)
Dewpoint-5.1 °C-1.7 °C (9:53 pm)-10 °C (6:53 am)
Humidity66.4 %85 % (11:53 pm)46 % (3:53 pm)
Barometer1014.2 hPa1016.9 hPa (1:53 am)1010.8 hPa (4:53 pm)
Wind Speed19 km/h33.3 km/h (12:53 pm)
Wind Gust50.1 km/h (2:53 pm)
Weather ElementAverage
Visibility16.1 km
Wind DirectionWNW (293.9 °)

Weather ElementTotal
Precipitation---
Heating Degree Days17.5 (Base 18.3)
Averaged from 23 records on 13 February, 2013
WEATHER CONDITIONS BREAKOUT
WIND DIRECTION BREAKOUT
WEATHER BY HOUR - 13 FEBRUARY, 2013
[ °F ]   °C
Local TimeTemperatureDewpointHumidityBarometerVisibilityWind DirectionWind SpeedGust SpeedPrecipitationEventsConditions
1:53 AM-4.4 °C-7.8 °C77 %1016.9 hPa16.1 kmWNW (290°)13 km/hScattered Clouds
2:53 AM-4.4 °C-8.3 °C75 %1016.3 hPa16.1 kmWest (280°)14.8 km/hScattered Clouds
3:53 AM-3.9 °C-8.3 °C72 %1015.6 hPa16.1 kmWNW (290°)16.7 km/hClear
4:53 AM-3.9 °C-8.3 °C72 %1014.9 hPa16.1 kmWNW (290°)14.8 km/hClear
5:53 AM-6.1 °C-9.4 °C78 %1015.2 hPa16.1 kmWNW (300°)13 km/hClear
6:53 AM-7.2 °C-10 °C81 %1015.6 hPa16.1 kmWNW (300°)14.8 km/hClear
7:53 AM-4.4 °C-8.3 °C75 %1014.9 hPa16.1 kmWest (280°)16.7 km/hClear
8:53 AM-2.8 °C-7.8 °C69 %1015.2 hPa16.1 kmWest (280°)18.5 km/hClear
9:53 AM-0.6 °C-6.7 °C64 %1014.9 hPa16.1 kmWest (280°)24.1 km/hClear
10:53 AM2.2 °C-5.6 °C57 %1014.6 hPa16.1 kmWNW (290°)24.1 km/hClear
11:53 AM4.4 °C-4.4 °C53 %1013.9 hPa16.1 kmWNW (290°)31.5 km/h46.3 km/hClear
12:53 PM6.1 °C-3.3 °C51 %1013.2 hPa16.1 kmWNW (290°)33.3 km/h42.6 km/hScattered Clouds
1:53 PM7.2 °C-2.8 °C49 %1011.9 hPa16.1 kmWNW (290°)31.5 km/h44.4 km/hMostly Cloudy
2:53 PM8.3 °C-2.2 °C48 %1011.5 hPa16.1 kmWNW (300°)33.3 km/h50.1 km/hClear
3:53 PM8.9 °C-2.2 °C46 %1011.2 hPa16.1 kmWNW (300°)24.1 km/hClear
4:53 PM8.9 °C-2.2 °C46 %1010.8 hPa16.1 kmWNW (290°)29.6 km/hClear
5:53 PM6.7 °C-2.8 °C51 %1011.5 hPa16.1 kmWNW (300°)16.7 km/hClear
6:53 PM1.1 °C-3.3 °C73 %1012.5 hPa16.1 kmWNW (290°)5.6 km/hScattered Clouds
7:53 PM1.1 °C-2.8 °C75 %1013.2 hPa16.1 kmWNW (300°)9.3 km/hOvercast
8:53 PM1.1 °C-3.3 °C73 %1014.2 hPa16.1 kmNW (320°)11.1 km/hOvercast
9:53 PM2.2 °C-1.7 °C76 %1014.6 hPa16.1 kmWNW (300°)13 km/hMostly Cloudy
10:53 PM1.1 °C-1.7 °C82 %1014.9 hPa16.1 kmWNW (290°)13 km/hMostly Cloudy
11:53 PM-0.6 °C-2.8 °C85 %1015.9 hPa16.1 kmNW (320°)13 km/hClear
Hourly data recorded from KLBF, located 0 kilometers away from Wellfleet, Nebraska







STORIES FROM OUR PARTNERS